Weather History for Las Americas, Dominican Republic

Change the Weather History Date:

Sunday, January 6, 2013

  Actual Average Record
Temperature  
Mean Temperature 78 °F -  
Max Temperature 87 °F 85 °F 87 °F (2013)
Min Temperature 68 °F 66 °F 50 °F (2000)
Cooling Degree Days 12    
Growing Degree Days 28 (Base 50)    
Moisture  
Dew Point 70 °F    
Average Humidity 80    
Maximum Humidity 94    
Minimum Humidity 55    
Precipitation  
Precipitation 0.00 in 0.05 in - ()
Sea Level Pressure  
Sea Level Pressure 30.07 in    
Wind  
Wind Speed 7 mph ()    
Max Wind Speed 16 mph    
Max Gust Speed -    
Visibility 6.9 miles    
Events      
Averages and records for this station are not official NWS values.
T = Trace of Precipitation, MM = Missing Value Source: Averaged Metar Reports

Daily Weather History Graph

Daily Weather History Graph

Search for Another Location

Airport:

Trip Planner

Search our weather history database for the weather conditions in past years. The results will help you decide how hot, cold, wet, or windy it might be!

Date:

Astronomy

Jan. 06, 2013 Rise Set
Actual Time 7:12 AM AST 6:17 PM AST
Civil Twilight 6:48 AM AST 6:40 PM AST
Nautical Twilight 6:21 AM AST 7:07 PM AST
Astronomical Twilight 5:54 AM AST 7:34 PM AST
Moon 1:41 AM AST (1/6) 1:26 PM AST (1/6)
Length of Visible Light 11h 51m
Length of Day
11h 04m
Waning Crescent, 34% of the Moon is Illuminated
Jan 6
Waning Crescent
Jan 11
New
Jan 18
First Quarter
Jan 27
Full
Feb 3
Last Quarter

Hourly Weather History & Observations

Time (AST) Temp. Heat Index Dew Point Humidity Pressure Visibility Wind Dir Wind Speed Gust Speed Precip Events Conditions
12:00 AM 73.4 °F - 69.8 °F 88% 30.12 in 6.2 mi NNE 4.6 mph - N/A   Partly Cloudy
1:00 AM 71.6 °F - 69.8 °F 94% 30.09 in 6.2 mi NNE 5.8 mph - N/A   Partly Cloudy
2:00 AM 70 °F - 67 °F 89% 30.11 in 10 mi NNE 6.7 mph - -   Scattered Clouds
2:00 AM 69.8 °F - 68.0 °F 94% 30.09 in 6.2 mi NNE 5.8 mph - N/A   Partly Cloudy
3:00 AM 69.8 °F - 66.2 °F 88% 30.06 in 6.2 mi NNE 5.8 mph - N/A   Partly Cloudy
3:55 AM 69.8 °F - 66.2 °F 88% 30.06 in 6.2 mi NNE 5.8 mph - N/A   Partly Cloudy
4:55 AM 68.0 °F - 66.2 °F 94% 30.04 in 6.2 mi NNE 5.8 mph - N/A   Partly Cloudy
5:00 AM 69 °F - 67 °F 91% 30.06 in 10 mi NNE 4.5 mph - -   Scattered Clouds
6:00 AM 68.0 °F - 66.2 °F 94% 30.06 in 6.2 mi NNE 5.8 mph - N/A   Partly Cloudy
6:55 AM 68.0 °F - 66.2 °F 94% 30.09 in 6.2 mi NE 5.8 mph - N/A   Partly Cloudy
8:00 AM 69.8 °F - 66.2 °F 88% 30.09 in 6.2 mi NNE 5.8 mph - N/A   Scattered Clouds
9:00 AM 75.2 °F - 69.8 °F 83% 30.12 in 6.2 mi NNE 5.8 mph - N/A   Scattered Clouds
10:00 AM 78.8 °F - 71.6 °F 78% 30.12 in 6.2 mi ENE 8.1 mph - N/A   Partly Cloudy
11:00 AM 82 °F - 73 °F 67% 30.12 in 10 mi ENE 11.2 mph - -   Partly Cloudy
11:00 AM 82.4 °F 88.2 °F 73.4 °F 74% 30.12 in 6.2 mi ENE 10.4 mph - N/A   Scattered Clouds
12:00 PM 84.2 °F 89.6 °F 71.6 °F 66% 30.09 in 6.2 mi East 11.5 mph - N/A   Scattered Clouds
1:00 PM 86.0 °F 90.4 °F 69.8 °F 58% 30.06 in 6.2 mi ENE 9.2 mph - N/A   Scattered Clouds
2:00 PM 87.8 °F 92.6 °F 69.8 °F 55% 30.04 in 6.2 mi ESE 11.5 mph - N/A   Scattered Clouds
3:00 PM 84.2 °F 90.9 °F 73.4 °F 70% 30.01 in 6.2 mi ESE 16.1 mph - N/A   Scattered Clouds
4:00 PM 84.2 °F 90.9 °F 73.4 °F 70% 30.01 in 6.2 mi East 10.4 mph - N/A   Partly Cloudy
5:00 PM 83 °F - 73 °F 65% 30.02 in 10 mi East 13.4 mph - -   Partly Cloudy
5:00 PM 82.4 °F 88.2 °F 73.4 °F 74% 30.01 in 6.2 mi East 12.7 mph - N/A   Scattered Clouds
6:00 PM 80.6 °F 84.6 °F 71.6 °F 74% 30.04 in 6.2 mi East 12.7 mph - N/A   Scattered Clouds
7:00 PM 78.8 °F - 71.6 °F 78% 30.04 in 6.2 mi ENE 6.9 mph - N/A   Mostly Cloudy
8:00 PM 80.6 °F 82.7 °F 66.2 °F 61% 30.06 in 6.2 mi ENE 8.1 mph - N/A   Scattered Clouds
9:00 PM 77.0 °F - 69.8 °F 78% 30.06 in 6.2 mi ENE 4.6 mph - N/A   Scattered Clouds
10:00 PM 75.2 °F - 69.8 °F 83% 30.06 in 6.2 mi NE 6.9 mph - N/A   Partly Cloudy
11:00 PM 72 °F - 69 °F 88% 30.09 in 10 mi NE 6.7 mph - -   Scattered Clouds
11:00 PM 71.6 °F - 69.8 °F 94% 30.06 in 6.2 mi NE 5.8 mph - N/A   Partly Cloudy